Overview Statistics Trail Chart Weather Telemetry Raw packets
 

This is the latest recevied weather packets stored in our database for station/object KO4LCK. If no packets are shown the sender has not sent any weather packets the latest 10 day(s).

<< 94 95 96 97 98 99 100 >>
Time Temp. Humidity Pressure Rain* Wind** Luminosity Snow
1787922333 25° C 86% 1018.5 hPa 0 mm - 195 W/m² -
1787922031 23.89° C 88% 1018.5 hPa 0 mm - 183 W/m² -
1787921726 23.89° C 91% 1018.4 hPa 0 mm - 173 W/m² -
1787921426 22.78° C 93% 1018.7 hPa 0 mm - 160 W/m² -
1787921121 22.78° C 94% 1018.5 hPa 0 mm - 137 W/m² -
1787920821 22.22° C 95% 1018.4 hPa 0 mm - 124 W/m² -
1787920516 22.22° C 96% 1018.5 hPa 0 mm - 80 W/m² -
1787920215 22.22° C 97% 1018.3 hPa 0 mm - 73 W/m² -
1787919909 21.67° C 97% 1018.2 hPa 0 mm - 64 W/m² -
1787919617 21.67° C 97% 1018.4 hPa 0 mm - 60 W/m² -
1787919303 21.67° C 97% 1018.3 hPa 0 mm - 55 W/m² -
1787918998 21.67° C 97% 1018.1 hPa 0 mm - 50 W/m² -
1787918693 21.11° C 97% 1018.2 hPa 0 mm - 46 W/m² -
1787918390 21.11° C 97% 1017.9 hPa 0 mm - 43 W/m² -
1787918085 21.11° C 97% 1017.9 hPa 0 mm - 38 W/m² -
1787917775 21.11° C 97% 1017.8 hPa 0 mm - 33 W/m² -
1787917472 21.11° C 97% 1017.8 hPa 0 mm - 28 W/m² -
1787917167 21.11° C 97% 1017.8 hPa 0 mm - 23 W/m² -
1787916867 20.56° C 97% 1017.7 hPa 0 mm - 18 W/m² -
1787916566 20.56° C 97% 1017.6 hPa 0 mm - 13 W/m² -
1787916261 20.56° C 97% 1017.5 hPa 0 mm - 9 W/m² -
1787915956 20.56° C 97% 1017.7 hPa 0 mm - 6 W/m² -
1787915652 20.56° C 97% 1017.6 hPa 0 mm - 4 W/m² -
1787915352 20.56° C 96% 1017.4 hPa 0 mm - 2 W/m² -
1787915047 21.11° C 97% 1017.5 hPa 0 mm - 1 W/m² -

* Rain latest hour (hover to see other rain measurements)
** Current wind speed in m/s (hover to see current wind gust speed)